Terminal Aerodrome Forecast
Issued by NWS

Home | Current Version | Previous Version | Graphics & Text | Print | Product List | Glossary On
Versions: 1 2 3 4 5 6 7 8 9 10 11 12 13 14 15 16 17 18 19 20 21 22 23 24 25 26 27 28 29 30
000
FTUS45 KGGW 211700
TAFGDV
TAF
KGDV 211730Z 2118/2218 04007KT P6SM -SHRA SCT080 BKN140
     FM212300 35012KT P6SM SCT050 BKN100
      TEMPO 2200/2204 3SM TSRA OVC040CB
     FM220400 02012KT P6SM VCTS BKN050CB
     FM220900 VRB06KT P6SM BKN050
      AMD LTD TO CLD VIS AND WIND=

USA.gov is the U.S. government's official web portal to all federal, state and local government web resources and services.